FH16Y GMMN-LPPT

Flight info

Callsign FH16Y
Flight time N/A
Altitude 38000
Route LAKAM UR722 AMSEL DCT VATZI VATZI2A/02
Aircraft C750/M-SBDE3FGHRWXY/S

Departure

Time N/A
Airport Mohammed V International Airport (GMMN)

Arrival

Time 2026-05-07 18:09
Airport Lisbon Humberto Delgado Airport (LPPT)
Time Latitude Longitude Altitude Speed Heading
2026-05-07 17:23 35.71501 -7.86047 37950 ft 507 kts 347°
2026-05-07 17:23 35.74973 -7.86409 37936 ft 504 kts 345°
2026-05-07 17:24 35.78366 -7.87276 37928 ft 491 kts 335°
2026-05-07 17:24 35.81428 -7.88671 37929 ft 449 kts 326°
2026-05-07 17:24 35.84073 -7.90407 37932 ft 414 kts 320°
2026-05-07 17:24 35.86489 -7.92231 37933 ft 407 kts 318°
2026-05-07 17:25 35.88950 -7.94070 37939 ft 421 kts 321°
2026-05-07 17:25 35.91616 -7.95708 37944 ft 433 kts 327°
2026-05-07 17:25 35.97262 -7.98341 37951 ft 436 kts 329°
2026-05-07 17:26 36.02789 -8.01373 37949 ft 433 kts 326°
2026-05-07 17:26 36.08367 -8.04291 37947 ft 436 kts 328°
2026-05-07 17:27 36.13920 -8.07242 37949 ft 434 kts 327°
2026-05-07 17:27 36.19481 -8.10204 37947 ft 435 kts 327°
2026-05-07 17:28 36.25014 -8.13138 37941 ft 435 kts 327°
2026-05-07 17:28 36.30561 -8.16102 37937 ft 434 kts 327°
2026-05-07 17:29 36.36120 -8.19065 37940 ft 434 kts 327°
2026-05-07 17:29 36.41680 -8.22040 37941 ft 434 kts 327°
2026-05-07 17:30 36.47235 -8.25014 37956 ft 435 kts 327°
2026-05-07 17:30 36.52795 -8.27994 37936 ft 434 kts 327°
2026-05-07 17:31 36.58348 -8.30980 37935 ft 435 kts 327°
2026-05-07 17:31 36.63901 -8.33965 37936 ft 435 kts 327°
2026-05-07 17:32 36.69465 -8.36970 37940 ft 441 kts 327°
2026-05-07 17:32 36.74179 -8.39502 37930 ft 438 kts 327°
2026-05-07 17:33 36.80642 -8.42999 37406 ft 429 kts 327°
2026-05-07 17:33 36.83394 -8.44488 36213 ft 431 kts 327°
2026-05-07 17:33 36.86130 -8.45971 35356 ft 426 kts 327°
2026-05-07 17:34 36.88833 -8.47433 34497 ft 421 kts 327°
2026-05-07 17:34 36.91506 -8.48883 33611 ft 416 kts 328°
2026-05-07 17:34 36.94141 -8.50316 32731 ft 412 kts 328°
2026-05-07 17:34 36.96752 -8.51734 31868 ft 406 kts 328°
2026-05-07 17:35 36.99332 -8.53136 31001 ft 402 kts 329°
2026-05-07 17:35 37.01884 -8.54526 30170 ft 398 kts 329°
2026-05-07 17:35 37.04420 -8.55907 29237 ft 394 kts 329°
2026-05-07 17:35 37.06917 -8.57267 28377 ft 389 kts 330°
2026-05-07 17:36 37.09388 -8.58614 27528 ft 384 kts 330°
2026-05-07 17:36 37.11821 -8.59943 26706 ft 380 kts 330°
2026-05-07 17:36 37.14229 -8.61258 25906 ft 376 kts 330°
2026-05-07 17:36 37.16631 -8.62573 25174 ft 382 kts 330°
2026-05-07 17:37 37.19055 -8.63899 24934 ft 374 kts 331°
2026-05-07 17:37 37.21402 -8.65172 24939 ft 364 kts 330°
2026-05-07 17:37 37.23698 -8.66435 24940 ft 367 kts 330°
2026-05-07 17:37 37.26079 -8.67749 24939 ft 369 kts 330°
2026-05-07 17:38 37.28433 -8.69037 24939 ft 370 kts 331°
2026-05-07 17:38 37.30824 -8.70350 24941 ft 391 kts 331°
2026-05-07 17:38 37.33393 -8.71771 24953 ft 415 kts 331°
2026-05-07 17:38 37.36096 -8.73254 24952 ft 424 kts 332°
2026-05-07 17:39 37.38743 -8.74686 24037 ft 410 kts 332°
2026-05-07 17:39 37.41394 -8.76149 22492 ft 419 kts 332°
2026-05-07 17:39 37.44032 -8.77614 21418 ft 409 kts 332°
2026-05-07 17:39 37.46617 -8.79035 20150 ft 402 kts 332°
2026-05-07 17:40 37.49213 -8.80466 18588 ft 411 kts 332°
2026-05-07 17:40 37.51801 -8.81895 17419 ft 401 kts 333°
2026-05-07 17:40 37.54337 -8.83293 16210 ft 393 kts 333°
2026-05-07 17:40 37.56820 -8.84667 15033 ft 386 kts 334°
2026-05-07 17:41 37.59253 -8.86012 13911 ft 378 kts 334°
2026-05-07 17:41 37.61727 -8.87105 12612 ft 374 kts 341°
2026-05-07 17:41 37.64195 -8.88081 11547 ft 371 kts 341°
2026-05-07 17:41 37.66748 -8.89128 10968 ft 402 kts 340°
2026-05-07 17:42 37.69423 -8.90231 10943 ft 405 kts 340°
2026-05-07 17:42 37.72030 -8.91282 10941 ft 374 kts 341°
2026-05-07 17:42 37.74400 -8.92234 10933 ft 342 kts 340°
2026-05-07 17:42 37.76643 -8.93152 10922 ft 343 kts 340°
2026-05-07 17:43 37.78902 -8.94082 10922 ft 342 kts 340°
2026-05-07 17:43 37.81132 -8.94990 10926 ft 340 kts 340°
2026-05-07 17:43 37.83394 -8.95908 10926 ft 339 kts 341°
2026-05-07 17:43 37.85658 -8.96831 10927 ft 343 kts 340°
2026-05-07 17:44 37.87929 -8.97762 10929 ft 345 kts 340°
2026-05-07 17:44 37.90202 -8.98692 10928 ft 343 kts 340°
2026-05-07 17:44 37.92472 -8.99618 10929 ft 342 kts 341°
2026-05-07 17:44 37.94741 -9.00546 10929 ft 343 kts 340°
2026-05-07 17:45 37.96954 -9.01451 10829 ft 324 kts 340°
2026-05-07 17:45 37.99059 -9.02313 10446 ft 309 kts 340°
2026-05-07 17:45 38.01055 -9.03134 10098 ft 294 kts 340°
2026-05-07 17:45 38.02955 -9.03939 9806 ft 280 kts 340°
2026-05-07 17:46 38.04734 -9.04698 9541 ft 263 kts 339°
2026-05-07 17:46 38.06475 -9.05436 8665 ft 266 kts 340°
2026-05-07 17:46 38.08223 -9.06172 8000 ft 262 kts 340°
2026-05-07 17:46 38.09365 -9.06654 7567 ft 258 kts 340°
2026-05-07 17:47 38.11097 -9.07387 6969 ft 262 kts 340°
2026-05-07 17:47 38.12774 -9.08096 6925 ft 250 kts 340°
2026-05-07 17:47 38.14447 -9.08805 6935 ft 254 kts 340°
2026-05-07 17:47 38.16134 -9.09465 6926 ft 248 kts 345°
2026-05-07 17:48 38.17837 -9.09330 6903 ft 254 kts 15°
2026-05-07 17:48 38.19328 -9.08154 6901 ft 255 kts 47°
2026-05-07 17:48 38.20507 -9.06476 6951 ft 256 kts 51°
2026-05-07 17:48 38.21669 -9.04769 6947 ft 256 kts 51°
2026-05-07 17:49 38.22842 -9.03065 6947 ft 257 kts 51°
2026-05-07 17:49 38.24015 -9.01369 6943 ft 255 kts 51°
2026-05-07 17:49 38.25184 -8.99673 6939 ft 255 kts 51°
2026-05-07 17:49 38.26353 -8.97974 6940 ft 255 kts 51°
2026-05-07 17:50 38.27524 -8.96282 6938 ft 255 kts 51°
2026-05-07 17:50 38.28708 -8.94601 6937 ft 255 kts 51°
2026-05-07 17:50 38.29899 -8.92913 6931 ft 254 kts 50°
2026-05-07 17:50 38.31081 -8.91226 6930 ft 254 kts 51°
2026-05-07 17:51 38.32259 -8.89537 6928 ft 255 kts 51°
2026-05-07 17:51 38.33446 -8.87848 6929 ft 255 kts 51°
2026-05-07 17:51 38.34623 -8.86164 6928 ft 254 kts 51°
2026-05-07 17:51 38.35801 -8.84472 6928 ft 257 kts 51°
2026-05-07 17:52 38.36986 -8.82778 6933 ft 255 kts 51°
2026-05-07 17:52 38.38165 -8.81088 6933 ft 256 kts 51°
2026-05-07 17:52 38.39369 -8.79425 6907 ft 257 kts 45°
2026-05-07 17:52 38.41004 -8.78543 6822 ft 259 kts
2026-05-07 17:53 38.42727 -8.79067 6839 ft 255 kts 330°
2026-05-07 17:53 38.44058 -8.80483 6911 ft 254 kts 305°
2026-05-07 17:53 38.44770 -8.82471 6911 ft 244 kts 278°
2026-05-07 17:53 38.44735 -8.84593 6911 ft 238 kts 253°
2026-05-07 17:54 38.44161 -8.86548 6956 ft 236 kts 244°
2026-05-07 17:54 38.43547 -8.88502 6939 ft 237 kts 246°
2026-05-07 17:54 38.42991 -8.90470 6937 ft 236 kts 247°
2026-05-07 17:54 38.42441 -8.92448 6935 ft 235 kts 246°
2026-05-07 17:55 38.41882 -8.94411 6936 ft 236 kts 246°
2026-05-07 17:55 38.41321 -8.96369 6934 ft 236 kts 246°
2026-05-07 17:55 38.40757 -8.98342 6936 ft 237 kts 246°
2026-05-07 17:55 38.40095 -9.00240 6907 ft 234 kts 236°
2026-05-07 17:56 38.39188 -9.01958 6934 ft 234 kts 232°
2026-05-07 17:56 38.38280 -9.03666 6938 ft 232 kts 233°
2026-05-07 17:56 38.37386 -9.05390 6943 ft 232 kts 233°
2026-05-07 17:56 38.36495 -9.07113 6945 ft 233 kts 233°
2026-05-07 17:57 38.35605 -9.08822 6936 ft 233 kts 233°
2026-05-07 17:57 38.35016 -9.09960 6943 ft 229 kts 235°
2026-05-07 17:57 38.34363 -9.12528 6936 ft 234 kts 258°
2026-05-07 17:57 38.34063 -9.14579 6947 ft 236 kts 257°
2026-05-07 17:58 38.33745 -9.16606 6944 ft 233 kts 256°
2026-05-07 17:58 38.33428 -9.18637 6943 ft 235 kts 257°
2026-05-07 17:58 38.33115 -9.20678 6943 ft 232 kts 256°
2026-05-07 17:58 38.32809 -9.22683 6944 ft 232 kts 256°
2026-05-07 17:59 38.32821 -9.24743 6912 ft 238 kts 277°
2026-05-07 17:59 38.33174 -9.26764 6949 ft 237 kts 278°
2026-05-07 17:59 38.33499 -9.28835 6953 ft 240 kts 278°
2026-05-07 17:59 38.33819 -9.30904 6948 ft 238 kts 278°
2026-05-07 18:00 38.34146 -9.32965 6947 ft 234 kts 278°
2026-05-07 18:00 38.34496 -9.35011 6935 ft 238 kts 283°
2026-05-07 18:00 38.35488 -9.36711 6884 ft 245 kts 316°
2026-05-07 18:00 38.36964 -9.37828 6891 ft 254 kts 340°
2026-05-07 18:01 38.38695 -9.37910 6465 ft 250 kts
2026-05-07 18:01 38.40293 -9.36986 5743 ft 251 kts 28°
2026-05-07 18:01 38.41741 -9.35962 5638 ft 224 kts 27°
2026-05-07 18:01 38.43032 -9.35059 5497 ft 204 kts 26°
2026-05-07 18:02 38.45503 -9.33333 4579 ft 197 kts 25°
2026-05-07 18:02 38.46729 -9.32475 4042 ft 206 kts 24°
2026-05-07 18:02 38.47938 -9.31623 3984 ft 189 kts 24°
2026-05-07 18:03 38.49102 -9.30808 3977 ft 193 kts 25°
2026-05-07 18:03 38.50286 -9.29979 3986 ft 194 kts 25°
2026-05-07 18:03 38.51461 -9.29153 3992 ft 195 kts 24°
2026-05-07 18:03 38.52648 -9.28319 3984 ft 197 kts 25°
2026-05-07 18:04 38.53835 -9.27486 3991 ft 193 kts 25°
2026-05-07 18:04 38.55028 -9.26647 3989 ft 196 kts 24°
2026-05-07 18:04 38.56219 -9.25809 3993 ft 197 kts 25°
2026-05-07 18:04 38.57379 -9.24886 3966 ft 195 kts 33°
2026-05-07 18:05 38.58558 -9.24047 3974 ft 195 kts 20°
2026-05-07 18:05 38.59808 -9.23388 3898 ft 198 kts 18°
2026-05-07 18:05 38.61089 -9.22708 3633 ft 199 kts 19°
2026-05-07 18:05 38.62356 -9.22030 3378 ft 196 kts 19°
2026-05-07 18:06 38.63602 -9.21362 3094 ft 192 kts 18°
2026-05-07 18:06 38.64814 -9.20711 2846 ft 185 kts 17°
2026-05-07 18:06 38.65967 -9.20091 2596 ft 174 kts 18°
2026-05-07 18:06 38.67057 -9.19506 2381 ft 167 kts 16°
2026-05-07 18:07 38.68123 -9.18942 2122 ft 164 kts 18°
2026-05-07 18:07 38.69162 -9.18386 1903 ft 160 kts 17°
2026-05-07 18:07 38.70149 -9.17859 1699 ft 148 kts 16°
2026-05-07 18:07 38.71108 -9.17350 1484 ft 148 kts 17°
2026-05-07 18:08 38.72026 -9.16827 1430 ft 142 kts 16°
2026-05-07 18:08 38.72933 -9.16338 1274 ft 144 kts 15°
2026-05-07 18:08 38.73861 -9.15866 1096 ft 141 kts 15°
2026-05-07 18:08 38.74757 -9.15386 852 ft 138 kts 16°
2026-05-07 18:09 38.75634 -9.14925 605 ft 135 kts 20°
2026-05-07 18:09 38.76468 -9.14479 407 ft 124 kts 14°
2026-05-07 18:09 38.77190 -9.14101 340 ft 95 kts 23°
2026-05-07 18:09 38.77611 -9.13871 339 ft 43 kts 21°
2026-05-07 18:10 38.77832 -9.13751 339 ft 29 kts 23°
2026-05-07 18:10 38.78061 -9.13627 348 ft 48 kts 22°
2026-05-07 18:10 38.78360 -9.13369 342 ft 39 kts 47°
2026-05-07 18:10 38.78367 -9.13273 346 ft 0 kts 143°
2026-05-07 18:11 38.78360 -9.13266 344 ft 4 kts 147°
2026-05-07 18:11 38.78338 -9.13260 348 ft 6 kts 183°
2026-05-07 18:11 38.78260 -9.13295 343 ft 11 kts 202°
2026-05-07 18:11 38.78178 -9.13335 343 ft 14 kts 202°
2026-05-07 18:12 38.78079 -9.13388 346 ft 18 kts 202°
2026-05-07 18:12 38.78039 -9.13409 348 ft 0 kts 202°
2026-05-07 18:13 38.78027 -9.13414 345 ft 3 kts 185°
2026-05-07 18:13 38.77990 -9.13409 343 ft 7 kts 164°
2026-05-07 18:13 38.77925 -9.13390 346 ft 13 kts 169°
2026-05-07 18:13 38.77821 -9.13351 343 ft 16 kts 167°
2026-05-07 18:14 38.77740 -9.13295 344 ft 13 kts 92°
2026-05-07 18:14 38.77794 -9.13218 345 ft 12 kts 353°
2026-05-07 18:14 38.77893 -9.13253 344 ft 13 kts 347°
2026-05-07 18:14 38.77904 -9.13270 349 ft 2 kts 257°
2026-05-07 18:15 38.77897 -9.13302 344 ft 0 kts 254°